📊 Raw Sensor Data

Showing records 47401 to 47425 of 85,084 total

ID Distance (ft) Battery V Battery A Int Temp (°F) Int Humid (%) Ext Temp (°F) Solar V RSSI SNR Time Stamp
37696 -- 3.82 0 72 38 71 5.10 -68 9 04/13/2025 11:15 AM
37695 -- 3.82 0 70 39 70 5.10 -69 8 04/13/2025 11:00 AM
37694 -- 3.82 0 69 39 68 5.10 -68 8 04/13/2025 10:46 AM
37693 -- 4.08 0 68 39 66 5.10 -68 9 04/13/2025 10:30 AM
37692 -- 3.82 0 66 39 66 5.10 -69 8 04/13/2025 10:15 AM
37691 -- 3.85 0 65 39 65 5.10 -69 9 04/13/2025 10:00 AM
37690 -- 3.82 0 63 39 64 5.10 -68 8 04/13/2025 09:45 AM
37689 -- 4.09 0 62 38 62 5.10 -69 8 04/13/2025 09:31 AM
37688 -- 3.82 0 61 38 62 5.10 -69 9 04/13/2025 09:15 AM
37687 -- 3.81 0 59 38 60 5.10 -70 8 04/13/2025 09:00 AM
37686 -- 3.83 0 57 38 59 5.10 -71 8 04/13/2025 08:45 AM
37685 -- 3.83 0 55 38 58 5.10 -71 9 04/13/2025 08:30 AM
37684 -- 3.82 0 53 38 56 5.10 -70 9 04/13/2025 08:15 AM
37683 -- 3.84 0 52 39 55 5.10 -70 9 04/13/2025 08:00 AM
37682 -- 3.98 69 50 39 54 4.50 -71 8 04/13/2025 07:45 AM
37681 -- 3.90 37 48 39 52 4.50 -71 8 04/13/2025 07:30 AM
37680 -- 3.87 5 47 40 49 4.50 -71 9 04/13/2025 07:15 AM
37679 -- 3.84 0 46 40 50 4.50 -71 8 04/13/2025 07:00 AM
37678 15.5 3.77 -5 46 39 48 4.50 -72 7 04/13/2025 06:45 AM
37677 -- 3.82 -8 45 39 48 4.10 -71 8 04/13/2025 06:30 AM
37676 -- 3.77 -5 45 39 48 0.60 -71 8 04/13/2025 06:15 AM
37675 15.5 3.82 -5 43 40 47 0.00 -72 8 04/13/2025 06:00 AM
37674 15.5 3.77 -5 42 40 44 0.00 -71 8 04/13/2025 05:45 AM
37673 -- 3.77 -5 40 41 44 0.00 -72 8 04/13/2025 05:30 AM
37672 -- 3.83 -5 40 41 43 0.00 -72 7 04/13/2025 05:15 AM